Wind_Speed
41 42 41 38 36 36 37 39 41 48 49 48 51 50 55 50 54 59 63 64 65 67 68 71 72 74 76 76 76 79 83 88 98 102 104 99 92 79 66 82 82 74 75 68
46 46 45 40 39 38 39 41 44 48 49 52 54 54 59 56 60 64 66 69 68 70 73 74 74 75 75 78 81 84 92 97 98 105 97 88 68 58 63 76 82 75 68 68
49 49 48 45 43 43 41 43 47 50 54 56 59 61 65 63 65 68 67 67 69 74 74 75 77 77 80 84 87 92 97 102 106 98 80 57 54 63 68 70 63 71 66 66
52 51 49 50 46 45 47 49 53 55 59 61 62 67 67 67 67 71 68 68 69 72 73 77 78 78 83 86 88 95 101 105 95 58 44 47 49 61 75 66 65 57 56 57
59 57 54 54 46 47 50 54 57 60 62 66 65 71 69 68 72 72 69 70 71 74 75 77 77 80 82 87 94 97 99 97 76 38 41 44 46 52 77 71 63 78 58 75
59 58 57 54 50 50 54 57 62 65 68 69 72 72 70 72 68 71 72 73 73 74 75 77 78 81 83 89 95 100 95 79 54 39 43 44 39 40 69 74 74 73 62 71
67 64 61 59 57 57 59 61 65 68 71 69 72 72 70 70 71 71 74 75 74 76 79 78 80 80 84 90 94 95 87 67 48 40 44 50 41 36 43 77 83 70 81 77
66 67 65 63 60 62 64 64 64 67 69 69 67 75 73 72 75 76 76 76 75 77 79 78 79 81 88 93 95 90 75 60 51 41 42 44 44 39 32 56 84 76 79 72
70 72 70 70 65 63 66 68 68 72 72 74 76 78 77 78 76 77 75 76 76 78 80 80 79 83 90 95 94 74 62 58 49 40 43 42 41 40 29 37 75 87 77 83
75 77 77 72 67 65 68 72 71 70 70 72 73 72 78 77 75 74 75 75 77 77 78 78 81 87 91 93 84 64 63 59 49 43 47 48 40 38 35 32 57 85 84 89
79 82 76 69 71 68 72 75 70 67 69 73 74 73 71 71 74 74 72 74 75 76 76 77 81 87 92 91 68 60 57 51 48 47 51 53 47 42 43 37 36 77 92 80
75 82 69 68 70 70 73 75 72 69 69 72 72 74 65 69 72 72 74 76 74 74 77 77 84 89 94 88 62 59 60 50 50 54 54 52 52 51 50 43 36 50 91 90
75 81 72 74 74 73 74 74 68 67 68 69 71 72 67 68 70 70 73 75 74 76 76 79 84 90 94 79 57 63 61 61 62 58 56 50 47 46 49 45 41 39 78 91
76 76 75 79 68 71 73 71 65 66 70 67 72 68 66 67 70 70 71 75 75 77 77 80 85 90 94 75 62 64 63 68 67 65 61 58 52 47 46 47 42 41 70 98
78 75 76 71 68 69 69 65 66 70 66 69 63 68 62 69 69 70 71 72 73 75 77 81 86 91 93 74 62 76 74 71 73 62 50 52 54 51 48 45 43 45 53 98
75 75 73 72 66 65 68 69 64 64 67 66 63 60 64 67 68 68 71 72 73 75 79 83 87 91 91 76 68 78 78 72 70 53 46 45 44 47 52 49 44 46 50 79
71 68 67 68 68 71 76 64 65 62 63 62 63 60 62 64 68 68 69 71 73 77 81 86 90 92 91 78 76 79 76 70 65 48 39 41 40 38 51 49 43 44 48 75
71 70 69 70 70 69 68 62 57 58 59 60 60 60 60 62 65 66 71 70 72 76 81 85 89 90 86 75 75 73 70 69 65 41 38 45 44 37 46 48 45 42 49 75
75 71 68 68 67 67 62 57 53 55 55 55 58 60 61 62 63 63 68 69 72 76 79 83 88 86 84 75 74 66 66 65 66 41 41 47 41 30 39 44 42 40 49 74
71 67 66 67 64 62 56 51 54 56 52 53 57 58 62 64 62 61 64 68 72 77 79 82 83 79 78 70 72 65 62 65 58 38 43 42 32 24 28 34 35 37 49 68
69 66 62 61 61 55 54 54 53 53 55 52 53 58 62 64 65 63 62 65 71 75 77 79 79 77 75 66 68 62 55 62 49 46 44 35 27 21 26 30 30 34 56 67
60 59 57 56 58 56 53 51 52 53 51 54 57 60 61 62 62 62 63 66 70 73 77 79 78 73 69 63 64 58 55 55 46 45 36 27 20 16 20 22 26 38 57 59
55 53 56 54 54 55 51 51 50 50 53 57 59 59 60 59 59 61 63 67 70 74 77 78 76 70 69 58 59 58 53 50 39 37 30 25 17 11 12 19 25 43 45 49
52 54 53 55 51 50 51 49 47 52 55 58 58 60 59 57 57 60 64 66 69 72 74 75 74 69 65 53 52 61 49 40 37 30 21 16 12 2 6 11 24 44 40 42
59 57 55 50 48 50 48 48 52 53 57 57 59 57 55 54 56 59 62 66 68 71 72 73 73 68 63 50 48 56 46 39 29 28 22 17 9 5 5 5 19 30 34 45
60 58 56 53 51 47 45 49 53 54 56 58 57 53 52 52 55 58 62 64 66 68 70 71 71 67 61 47 43 48 51 45 27 24 22 19 15 13 7 8 16 27 38 45
Wind_Direction
330 331 326 321 315 311 310 309 310 308 307 306 306 308 306 314 312 314 315 313 313 316 314 312 313 310 307 307 306 307 307 301 296 291 286 286 285 279 260 249 245 244 245 240
328 328 327 322 320 318 313 311 312 310 308 308 306 308 307 311 311 316 317 315 315 315 314 313 310 308 306 306 306 306 305 305 299 294 296 292 279 256 246 241 240 240 239 237
328 325 325 321 317 317 312 313 312 313 310 308 308 307 307 311 312 315 314 314 314 313 312 311 309 310 308 308 308 307 309 305 301 305 299 285 267 239 235 239 235 240 235 237
323 323 321 321 314 312 311 313 313 315 312 308 309 308 309 310 313 314 314 313 313 310 311 310 310 309 308 308 309 312 310 306 308 307 299 290 261 240 232 229 230 230 216 215
321 322 321 321 316 312 312 312 311 313 312 310 309 308 312 315 316 315 314 314 314 311 311 311 310 309 309 311 314 314 310 309 311 300 311 306 281 251 227 226 222 219 208 231
321 319 320 318 318 314 313 314 312 313 310 311 311 311 313 315 315 315 314 313 312 311 311 312 312 311 312 315 316 314 313 311 300 293 304 309 308 267 233 225 224 219 204 209
318 319 319 318 313 311 313 315 314 313 312 312 309 307 311 311 312 313 311 312 312 312 314 313 311 313 315 317 317 316 313 309 284 288 301 304 303 295 249 231 222 210 215 201
314 319 320 317 314 312 313 314 314 312 311 310 305 305 309 310 311 311 312 313 313 314 313 312 314 317 319 320 320 316 315 305 286 283 301 304 303 301 268 239 225 214 218 195
313 314 315 316 313 311 313 316 314 310 308 306 306 307 308 311 313 312 313 314 314 315 314 316 316 319 321 322 321 315 315 306 289 284 302 300 295 297 295 255 231 218 211 204
311 311 312 312 311 309 311 313 313 308 303 303 305 306 310 315 312 312 314 312 314 314 315 315 316 321 324 323 320 311 311 307 292 281 299 297 290 293 294 292 239 226 214 214
307 308 308 309 311 308 307 311 311 305 303 302 305 308 312 311 307 311 311 312 314 313 313 314 317 322 325 326 315 310 314 303 290 282 290 287 290 286 290 282 267 230 217 219
301 308 304 308 311 307 307 310 307 303 303 302 303 307 312 306 308 312 312 313 312 314 315 318 321 326 328 328 314 312 311 306 288 284 283 281 277 276 281 282 276 240 225 216
299 306 303 307 309 306 306 306 304 301 300 304 302 313 308 308 310 313 312 312 313 314 318 321 324 328 329 328 312 321 314 314 310 302 286 283 276 270 271 271 260 259 223 211
294 301 301 303 302 302 303 302 301 300 301 302 306 306 307 307 311 312 312 312 314 318 318 323 326 329 330 328 323 325 321 319 320 309 291 283 278 266 263 259 254 258 224 213
294 295 300 303 302 301 301 301 301 301 302 300 307 305 311 307 312 311 311 313 315 315 320 323 328 331 331 327 325 331 323 320 318 312 297 286 276 257 251 248 253 252 232 215
294 296 299 299 299 297 299 300 302 301 302 303 302 309 305 310 310 311 311 313 313 318 321 326 329 333 333 329 327 334 328 327 325 316 301 291 283 254 237 242 249 249 236 216
294 295 297 297 296 297 298 300 300 302 301 301 304 308 308 309 308 310 311 313 319 321 326 329 332 335 334 330 327 336 329 328 329 318 302 301 294 272 233 234 243 243 234 213
293 296 295 297 297 294 299 300 300 299 298 300 305 306 307 308 310 310 309 314 319 323 326 330 332 334 332 329 327 335 328 331 332 315 308 312 303 282 235 231 237 239 225 210
294 296 296 295 293 295 299 300 299 296 297 300 302 305 308 309 309 308 312 316 319 323 325 330 333 332 332 328 326 335 331 331 332 315 313 319 310 281 235 229 235 237 216 207
295 295 294 293 291 293 298 298 295 296 299 296 303 305 306 306 308 309 312 314 317 321 326 329 333 332 331 327 326 334 331 332 335 325 322 318 306 277 242 231 239 226 206 197
294 295 294 290 291 293 299 297 296 294 295 300 300 303 306 308 310 312 312 314 316 321 325 328 332 330 331 327 327 334 331 334 335 331 326 317 299 268 250 243 232 219 197 190
298 295 291 287 289 298 294 294 293 295 299 299 301 304 309 309 309 310 312 314 317 321 323 327 331 331 331 326 327 332 333 331 333 334 333 327 318 279 255 228 222 205 190 190
298 288 287 286 291 293 291 292 295 297 297 300 303 306 308 308 309 310 311 314 319 322 324 328 330 331 331 327 327 331 343 330 333 332 336 330 315 281 251 232 199 188 185 182
294 291 288 287 290 287 289 293 296 295 297 300 305 307 307 308 308 308 311 315 319 321 324 327 329 329 330 327 327 328 343 335 332 330 328 345 348 286 179 171 192 185 187 184
297 290 290 284 287 283 291 295 294 298 301 305 306 305 305 305 306 309 312 316 318 321 325 326 328 328 329 328 326 326 337 340 319 326 319 311 323 315 256 244 220 201 192 188
297 287 282 282 284 289 292 294 297 301 304 304 303 303 303 305 308 311 314 316 319 322 324 325 325 326 327 327 323 325 334 344 317 306 311 302 306 318 243 225 213 214 200 184
Height
5807 5803 5798 5794 5790 5787 5782 5777 5773 5766 5761 5757 5750 5746 5735 5735 5726 5719 5710 5701 5694 5687 5679 5672 5663 5655 5646 5635 5626 5619 5612 5601 5581 5570 5560 5553 5551 5556 5563 5570 5577 5585 5594 5601
5801 5795 5792 5788 5783 5780 5775 5771 5766 5759 5751 5744 5737 5734 5724 5724 5715 5705 5698 5686 5678 5668 5659 5653 5645 5636 5627 5617 5606 5596 5582 5567 5553 5536 5524 5514 5515 5523 5530 5538 5550 5563 5572 5581
5795 5789 5785 5781 5776 5772 5767 5762 5756 5750 5740 5731 5726 5720 5710 5707 5699 5691 5684 5677 5667 5653 5645 5637 5626 5615 5604 5592 5582 5567 5551 5534 5515 5501 5490 5486 5483 5493 5502 5513 5530 5541 5552 5561
5784 5781 5776 5772 5767 5762 5756 5751 5745 5740 5730 5720 5712 5703 5700 5694 5686 5680 5670 5663 5654 5642 5633 5621 5611 5601 5587 5574 5563 5546 5525 5503 5490 5481 5471 5464 5461 5464 5475 5491 5506 5522 5534 5526
5771 5767 5762 5758 5755 5750 5744 5738 5731 5725 5718 5709 5703 5691 5684 5675 5668 5662 5655 5646 5637 5626 5617 5607 5596 5583 5570 5554 5537 5524 5504 5486 5474 5467 5458 5452 5446 5446 5451 5466 5481 5487 5499 5516
5764 5759 5754 5748 5743 5738 5733 5727 5718 5711 5703 5695 5686 5676 5675 5662 5655 5645 5639 5631 5623 5612 5603 5589 5575 5561 5550 5536 5518 5496 5478 5467 5459 5454 5448 5443 5436 5434 5439 5448 5458 5471 5478 5496
5747 5744 5742 5737 5731 5725 5719 5712 5705 5699 5689 5683 5670 5662 5663 5653 5644 5636 5626 5618 5606 5593 5581 5570 5558 5546 5531 5517 5500 5481 5463 5454 5445 5442 5438 5433 5427 5423 5423 5431 5440 5452 5458 5475
5739 5733 5730 5725 5720 5712 5705 5700 5694 5681 5677 5674 5664 5646 5645 5641 5630 5619 5612 5601 5589 5579 5566 5554 5541 5526 5510 5494 5475 5457 5445 5437 5431 5429 5427 5422 5417 5412 5409 5414 5422 5434 5439 5453
5726 5720 5715 5711 5706 5700 5690 5685 5678 5667 5663 5655 5649 5634 5624 5621 5611 5602 5595 5584 5572 5560 5545 5533 5525 5513 5494 5473 5458 5440 5432 5423 5417 5417 5414 5410 5407 5402 5399 5398 5404 5417 5426 5435
5714 5705 5701 5697 5693 5686 5677 5671 5665 5654 5644 5637 5637 5631 5609 5603 5597 5590 5580 5569 5558 5547 5535 5523 5509 5496 5482 5463 5444 5432 5421 5411 5405 5403 5401 5398 5395 5391 5389 5388 5391 5400 5410 5418
5702 5696 5690 5684 5678 5672 5664 5657 5651 5641 5632 5621 5617 5621 5610 5595 5582 5578 5569 5560 5549 5538 5528 5513 5501 5486 5466 5448 5430 5420 5410 5400 5394 5391 5388 5385 5382 5379 5377 5376 5378 5384 5393 5399
5690 5680 5676 5671 5667 5660 5649 5643 5636 5626 5620 5607 5600 5601 5598 5583 5570 5563 5553 5543 5534 5523 5509 5497 5482 5465 5446 5427 5415 5407 5396 5386 5380 5376 5372 5369 5366 5364 5362 5363 5364 5366 5377 5384
5677 5666 5661 5656 5652 5643 5635 5628 5622 5614 5608 5604 5586 5586 5573 5565 5560 5551 5538 5528 5518 5507 5495 5483 5468 5451 5431 5416 5402 5391 5380 5372 5363 5356 5352 5349 5347 5346 5345 5346 5347 5349 5359 5375
5661 5654 5650 5645 5641 5628 5622 5615 5611 5600 5594 5589 5578 5572 5565 5550 5543 5538 5528 5513 5501 5490 5480 5468 5455 5437 5417 5399 5386 5375 5365 5352 5342 5331 5323 5321 5322 5325 5327 5328 5330 5332 5337 5351
5645 5640 5633 5629 5626 5616 5608 5602 5597 5588 5583 5570 5576 5553 5553 5537 5532 5521 5512 5504 5493 5481 5468 5455 5440 5424 5404 5388 5374 5359 5345 5333 5318 5304 5297 5294 5294 5299 5306 5310 5312 5313 5318 5332
5632 5623 5619 5614 5612 5601 5595 5590 5583 5571 5565 5559 5554 5554 5533 5525 5516 5511 5499 5490 5480 5468 5454 5440 5427 5410 5391 5371 5358 5346 5329 5313 5297 5283 5277 5272 5271 5272 5280 5289 5293 5294 5299 5311
5615 5608 5601 5598 5594 5587 5582 5581 5572 5563 5553 5545 5539 5536 5529 5515 5502 5493 5488 5474 5461 5450 5436 5421 5407 5389 5373 5357 5343 5333 5317 5302 5286 5272 5265 5260 5255 5254 5259 5267 5274 5278 5283 5295
5600 5593 5583 5581 5574 5568 5569 5567 5560 5551 5541 5532 5527 5521 5516 5507 5493 5482 5469 5463 5453 5441 5425 5412 5395 5382 5367 5350 5336 5325 5305 5290 5275 5263 5258 5250 5242 5237 5241 5249 5258 5263 5269 5282
5583 5577 5569 5562 5555 5555 5556 5550 5546 5539 5534 5522 5512 5506 5501 5496 5489 5476 5459 5450 5442 5433 5421 5405 5385 5367 5355 5337 5327 5316 5298 5281 5267 5256 5250 5240 5231 5226 5229 5237 5246 5252 5258 5272
5569 5562 5556 5547 5541 5537 5539 5536 5529 5525 5524 5515 5504 5496 5488 5480 5480 5472 5459 5444 5434 5422 5409 5398 5383 5363 5347 5334 5320 5308 5291 5275 5259 5250 5243 5234 5226 5224 5225 5230 5236 5243 5250 5265
5552 5545 5541 5529 5524 5529 5527 5520 5514 5509 5509 5503 5497 5488 5479 5470 5459 5456 5449 5440 5426 5412 5404 5395 5378 5355 5338 5327 5315 5302 5287 5272 5257 5247 5237 5228 5222 5221 5223 5226 5229 5235 5244 5257
5539 5531 5528 5519 5510 5513 5512 5507 5503 5495 5492 5488 5482 5475 5467 5458 5449 5440 5433 5426 5417 5408 5398 5384 5366 5351 5335 5320 5309 5295 5282 5271 5257 5246 5236 5227 5221 5218 5219 5221 5225 5231 5244 5259
5520 5519 5513 5509 5503 5497 5493 5491 5488 5484 5478 5472 5466 5460 5453 5444 5438 5430 5424 5415 5405 5392 5382 5369 5356 5343 5327 5315 5302 5291 5279 5267 5258 5248 5239 5230 5224 5221 5221 5222 5226 5237 5248 5263
5505 5499 5496 5492 5492 5483 5479 5476 5474 5469 5465 5459 5453 5446 5439 5433 5426 5420 5412 5404 5395 5385 5373 5360 5348 5334 5321 5310 5299 5285 5274 5265 5257 5249 5242 5235 5229 5225 5226 5228 5233 5242 5252 5262
5492 5484 5480 5479 5477 5468 5468 5464 5458 5456 5450 5447 5440 5434 5428 5421 5415 5409 5400 5392 5384 5374 5361 5346 5335 5324 5312 5302 5294 5284 5271 5263 5256 5249 5243 5239 5235 5232 5232 5234 5239 5243 5249 5258
5475 5469 5464 5463 5459 5457 5455 5450 5443 5439 5436 5431 5426 5421 5415 5409 5403 5395 5387 5381 5373 5361 5350 5338 5325 5315 5305 5297 5289 5281 5268 5259 5252 5248 5243 5239 5237 5235 5235 5238 5240 5243 5248 5255